When you browse on this site, cookies collect data to enhance your experience and personalize the content and advertising you see.
Visit our Privacy Policy to learn more. By continuing to use the site, you agree to this use of cookies and data.
  • In France
  • List of Countries
  • For 7 days
  • Water Temperature
  • Satellite Maps
  • Weather Map
  • Weather Widgets
  • user-avatar
    Login

    Hourly Weather Hidib

    Today, 10 December, Monday

    Time Temperature Precipitation Wind Pressure Humidity
    00:00 -6°C° 0 mm 2 mps 601 mmHg 72%
    01:00 -6°C° 0 mm 2 mps 601 mmHg 72%
    02:00 -6°C° 0 mm 2 mps 601 mmHg 71%
    03:00 -6°C° 0 mm 2 mps 601 mmHg 71%
    04:00 -6°C° 0 mm 2 mps 601 mmHg 70%
    05:00 -6°C° 0 mm 2 mps 600 mmHg 68%
    06:00 -6°C° 0 mm 2 mps 600 mmHg 67%
    07:00 -5°C° 0 mm 2 mps 601 mmHg 64%
    08:00 -3°C° 0 mm 2 mps 601 mmHg 61%
    09:00 -2°C° 0 mm 2 mps 601 mmHg 58%
    10:00 -1°C° 0 mm 2 mps 601 mmHg 56%
    11:00 +1°C° 0 mm 2 mps 601 mmHg 55%
    12:00 +2°C° 0 mm 2 mps 602 mmHg 53%
    13:00 +2°C° 0 mm 2 mps 601 mmHg 55%
    14:00 +2°C° 0 mm 2 mps 601 mmHg 57%
    15:00 +1°C° 0 mm 2 mps 601 mmHg 60%
    16:00 -1°C° 0 mm 2 mps 600 mmHg 59%
    17:00 -2°C° 0 mm 2 mps 600 mmHg 59%
    18:00 -5°C° 0 mm 3 mps 599 mmHg 59%
    19:00 -5°C° 0 mm 3 mps 599 mmHg 60%
    20:00 -5°C° 0 mm 3 mps 599 mmHg 60%
    21:00 -5°C° 0 mm 3 mps 599 mmHg 61%
    22:00 -5°C° 0 mm 3 mps 599 mmHg 62%
    23:00 -5°C° 0 mm 3 mps 599 mmHg 63%

    Tomorrow, 11 December, Tuesday

    Time Temperature Precipitation Wind Pressure Humidity
    00:00 -5°C° 0 mm 3 mps 599 mmHg 64%
    01:00 -5°C° 0 mm 3 mps 599 mmHg 63%
    02:00 -5°C° 0 mm 3 mps 599 mmHg 62%
    03:00 -4°C° 0 mm 2 mps 599 mmHg 61%
    04:00 -4°C° 0 mm 2 mps 599 mmHg 60%
    05:00 -3°C° 0 mm 2 mps 599 mmHg 59%
    06:00 -3°C° 0 mm 2 mps 599 mmHg 58%
    07:00 -2°C° 0 mm 3 mps 599 mmHg 57%
    08:00 -1°C° 0 mm 3 mps 600 mmHg 56%
    09:00 0°C° 0 mm 3 mps 600 mmHg 56%
    10:00 +1°C° 0 mm 3 mps 600 mmHg 56%
    11:00 +2°C° 0 mm 3 mps 600 mmHg 56%
    12:00 +4°C° 0 mm 3 mps 601 mmHg 56%
    13:00 +3°C° 0 mm 3 mps 600 mmHg 59%
    14:00 +3°C° 0 mm 3 mps 600 mmHg 61%
    15:00 +1°C° 0 mm 4 mps 599 mmHg 64%
    16:00 0°C° 0 mm 4 mps 599 mmHg 67%
    17:00 -1°C° 0 mm 4 mps 598 mmHg 69%
    18:00 -2°C° 0 mm 4 mps 598 mmHg 72%
    19:00 -2°C° 0 mm 4 mps 597 mmHg 72%
    20:00 -2°C° 0 mm 4 mps 597 mmHg 72%
    21:00 -2°C° 0 mm 4 mps 597 mmHg 72%
    22:00 -2°C° 0 mm 4 mps 597 mmHg 72%
    23:00 -2°C° 0 mm 4 mps 597 mmHg 72%

    Day after tomorrow, 12 December, Wednesday

    Time Temperature Precipitation Wind Pressure Humidity
    00:00 -2°C° 0 mm 4 mps 597 mmHg 72%
    01:00 -2°C° 0.1 mm 4 mps 597 mmHg 74%
    02:00 -2°C° 0.1 mm 4 mps 597 mmHg 75%
    03:00 -2°C° 0.1 mm 4 mps 598 mmHg 77%
    04:00 -2°C° 0.1 mm 3 mps 598 mmHg 78%
    05:00 -2°C° 0.1 mm 3 mps 599 mmHg 80%
    06:00 -4°C° 0.1 mm 3 mps 599 mmHg 81%
    07:00 -3°C° 0 mm 2 mps 600 mmHg 79%
    08:00 -2°C° 0 mm 2 mps 600 mmHg 77%
    09:00 -2°C° 0 mm 2 mps 601 mmHg 75%
    10:00 -1°C° 0 mm 2 mps 601 mmHg 71%
    11:00 -1°C° 0 mm 2 mps 601 mmHg 68%
    12:00 +1°C° 0 mm 2 mps 601 mmHg 64%
    13:00 +1°C° 0.1 mm 2 mps 601 mmHg 65%
    14:00 +1°C° 0.1 mm 1 mps 601 mmHg 66%
    15:00 +1°C° 0.1 mm 1 mps 601 mmHg 66%
    16:00 -2°C° 0.1 mm 2 mps 600 mmHg 68%
    17:00 -3°C° 0.1 mm 2 mps 600 mmHg 69%
    18:00 -4°C° 0.1 mm 2 mps 600 mmHg 71%
    19:00 -3°C° 0.5 mm 2 mps 600 mmHg 74%
    20:00 -3°C° 0.5 mm 2 mps 600 mmHg 78%
    21:00 -3°C° 0.5 mm 2 mps 600 mmHg 82%
    22:00 -3°C° 0.9 mm 2 mps 599 mmHg 83%
    23:00 -3°C° 0.9 mm 2 mps 599 mmHg 85%

    13 December, Thursday

    Time Temperature Precipitation Wind Pressure Humidity
    00:00 -4°C° 0.9 mm 3 mps 599 mmHg 87%
    01:00 -4°C° 0.5 mm 3 mps 599 mmHg 87%
    02:00 -4°C° 0.5 mm 3 mps 599 mmHg 87%
    03:00 -4°C° 0.5 mm 3 mps 599 mmHg 87%
    04:00 -3°C° 0.2 mm 2 mps 599 mmHg 87%
    05:00 -4°C° 0.2 mm 2 mps 598 mmHg 87%
    06:00 -4°C° 0.2 mm 2 mps 598 mmHg 88%
    07:00 -4°C° 0.3 mm 2 mps 599 mmHg 87%
    08:00 -4°C° 0.3 mm 2 mps 599 mmHg 86%
    09:00 -4°C° 0.3 mm 2 mps 600 mmHg 85%
    10:00 -3°C° 0.1 mm 2 mps 600 mmHg 82%
    11:00 -3°C° 0.1 mm 2 mps 601 mmHg 79%
    12:00 -2°C° 0.1 mm 2 mps 601 mmHg 76%
    13:00 -3°C° 0 mm 2 mps 601 mmHg 76%
    14:00 -3°C° 0 mm 2 mps 602 mmHg 77%
    15:00 -3°C° 0 mm 2 mps 602 mmHg 77%
    16:00 -5°C° 0 mm 2 mps 602 mmHg 78%
    17:00 -6°C° 0 mm 2 mps 601 mmHg 79%
    18:00 -7°C° 0 mm 2 mps 601 mmHg 80%
    19:00 -7°C° 0 mm 2 mps 602 mmHg 76%
    20:00 -8°C° 0 mm 2 mps 602 mmHg 73%
    21:00 -7°C° 0 mm 1 mps 602 mmHg 69%
    22:00 -7°C° 0 mm 1 mps 602 mmHg 66%
    23:00 -7°C° 0 mm 1 mps 602 mmHg 63%

    14 December, Friday

    Time Temperature Precipitation Wind Pressure Humidity
    00:00 -7°C° 0 mm 1 mps 602 mmHg 60%
    01:00 -7°C° 0 mm 1 mps 602 mmHg 60%
    02:00 -7°C° 0 mm 1 mps 602 mmHg 59%
    03:00 -8°C° 0 mm 2 mps 602 mmHg 59%
    04:00 -9°C° 0 mm 2 mps 602 mmHg 60%
    05:00 -9°C° 0 mm 2 mps 602 mmHg 62%
    06:00 -10°C° 0 mm 2 mps 602 mmHg 63%
    07:00 -9°C° 0 mm 2 mps 603 mmHg 64%
    08:00 -8°C° 0 mm 2 mps 603 mmHg 66%
    09:00 -8°C° 0 mm 2 mps 604 mmHg 67%
    10:00 -7°C° 0 mm 2 mps 604 mmHg 67%
    11:00 -6°C° 0 mm 2 mps 604 mmHg 67%
    12:00 -5°C° 0 mm 2 mps 604 mmHg 67%
    13:00 -6°C° 0 mm 2 mps 604 mmHg 68%
    14:00 -6°C° 0 mm 2 mps 604 mmHg 70%
    15:00 -4°C° 0 mm 1 mps 604 mmHg 71%
    16:00 -7°C° 0 mm 1 mps 604 mmHg 74%
    17:00 -8°C° 0 mm 1 mps 604 mmHg 76%
    18:00 -9°C° 0 mm 1 mps 603 mmHg 79%
    19:00 -10°C° 0 mm 1 mps 603 mmHg 75%
    20:00 -12°C° 0 mm 2 mps 603 mmHg 70%
    21:00 -12°C° 0 mm 2 mps 603 mmHg 66%
    22:00 -12°C° 0 mm 2 mps 603 mmHg 63%
    23:00 -12°C° 0 mm 2 mps 603 mmHg 60%

    15 December, Saturday

    Time Temperature Precipitation Wind Pressure Humidity
    00:00 -12°C° 0 mm 2 mps 603 mmHg 57%
    01:00 -12°C° 0 mm 2 mps 603 mmHg 57%
    02:00 -12°C° 0 mm 2 mps 603 mmHg 57%
    03:00 -12°C° 0 mm 2 mps 604 mmHg 56%
    04:00 -12°C° 0 mm 2 mps 604 mmHg 56%
    05:00 -12°C° 0 mm 2 mps 604 mmHg 55%
    06:00 -12°C° 0 mm 2 mps 604 mmHg 55%
    07:00 -10°C° 0 mm 2 mps 604 mmHg 54%
    08:00 -9°C° 0 mm 2 mps 605 mmHg 53%
    09:00 -8°C° 0 mm 2 mps 606 mmHg 52%
    10:00 -6°C° 0 mm 2 mps 606 mmHg 51%
    11:00 -5°C° 0 mm 2 mps 606 mmHg 49%
    12:00 -2°C° 0 mm 1 mps 606 mmHg 47%
    13:00 -2°C° 0 mm 1 mps 606 mmHg 50%
    14:00 -2°C° 0 mm 1 mps 606 mmHg 52%
    15:00 -2°C° 0 mm 1 mps 606 mmHg 55%
    16:00 -3°C° 0 mm 1 mps 606 mmHg 54%
    17:00 -4°C° 0 mm 1 mps 606 mmHg 54%
    18:00 -7°C° 0 mm 2 mps 605 mmHg 53%
    19:00 -7°C° 0 mm 2 mps 605 mmHg 51%
    20:00 -7°C° 0 mm 2 mps 605 mmHg 50%
    21:00 -7°C° 0 mm 2 mps 606 mmHg 48%
    22:00 -7°C° 0 mm 2 mps 606 mmHg 48%
    23:00 -7°C° 0 mm 2 mps 605 mmHg 48%
    Show more